Location: Newark
(39.5667°N, 8.9833°E)
Time: 19:23:25
(UTC+00:00)

LightSail 2 - Pass Details

Date: 28 September 2019
Orbit: 707 x 722 km, 24.0° (Epoch: 22 October)

Event Time Altitude Azimuth Distance (km) Brightness Sun altitude
Exits shadow 03:23:35 13° 179° (S) 1,961 7.3 -22.4°
Drops below altitude 10° 03:25:32 10° 156° (SSE) 2,164 7.7 -22.0°
Sets 03:29:14 0° 130° (SE) 3,080 8.9 -21.3°
